Regional Weather Roundup
Issued by NWS Wakefield, VA

Home | Current Version | Previous Version | Text Only | Print | Product List | Glossary On
Versions: 1 2 3 4 5 6 7 8 9 10 11 12 13 14 15 16 17 18 19 20 21 22 23 24 25 26 27 28 29 30 31 32 33 34 35 36 37 38 39 40 41 42 43 44 45 46 47 48 49 50
000
ASUS41 KAKQ 262214
RWRAKQ

REGIONAL WEATHER ROUNDUP
NATIONAL WEATHER SERVICE WAKEFIELD VA
600 PM EDT SUN APR 26 2015

Note: "fair" indicates few or no clouds below 12,000 feet with no
significant weather and/or obstructions to visibility. * = Denotes
station may not report precipitation (e.g., rain,snow,etc.),
thunder or fog.

VAZ042-051-052>054-056-262300-
NORTHERN VIRGINIA

CITY           SKY/WX    TMP DP  RH WIND       PRES   REMARKS
WASH NATIONAL  PTSUNNY   66  35  31 N6        29.68S
DULLES         PTSUNNY   62  30  29 NW7       29.69R
FORT BELVOIR   MOSUNNY   64  29  26 NW5       29.68S
QUANTICO       MOSUNNY   64  31  28 NW8       29.69S
FREDERICKSBRG* SUNNY     65  33  30 N9        29.68S
STAFFORD*      PTSUNNY   62  31  31 NW10      29.73R
WARRENTON      MOSUNNY   64  35  34 NW6       29.69S
CULPEPER*      SUNNY     63  32  31 N5        29.70S
MANASSAS*      SUNNY     63  36  36 N7        29.69S
LEESBURG*      SUNNY     63  36  36 NW7       29.69S
WINCHESTER     PTSUNNY   63  18  17 NE3       29.68S
FRONT ROYAL*   FAIR      61  34  36 N6        29.67S
LURAY*         FAIR      63  37  39 S3        29.69S
$$

VAZ048-049-060>072-079>083-262300-
CENTRAL AND SOUTH CENTRAL VIRGINIA

CITY           SKY/WX    TMP DP  RH WIND       PRES   REMARKS
RICHMOND       PTSUNNY   60  38  43 E6        29.70S
CHESTERFIELD*  MOCLDY    61  34  36 NW9       29.71S
PETERSBURG*    PTSUNNY   60  37  41 NE8       29.71R
HANOVER        MOSUNNY   61  36  39 CALM      29.71S
TAPPAHANNOCK*  PTSUNNY   62  31  31 E3        29.69S
QUINTON*       FAIR      59  37  43 NE5       29.69S
CHARLOTTSVILLE SUNNY     61  36  39 S6        29.69S
GORDONSVILLE*  FAIR      61  33  36 N6        29.69S
ORANGE*        SUNNY     63  34  34 N3        29.71S
LOUISA*        MOSUNNY   61  36  39 N3        29.69R
BUMPASS*       FAIR      59  37  42 W3        29.69S
FARMVILLE*     MOSUNNY   61  37  41 CALM      29.71R
CREWE*         FAIR      58  36  44 NW3       29.71R
FORT PICKETT*  CLOUDY    57  39  49 CALM      29.71R
CHASE CITY*    MOCLDY    57  45  64 CALM      29.72S
CLARKSVILLE*   MOCLDY    54  41  62 N6        29.72S
SOUTH HILL*    PTSUNNY   55  41  58 N6        29.77R
LAWRENCEVILLE* FAIR      56  42  57 N3        29.71R
EMPORIA*       SUNNY     55  41  58 NW7       29.72S
$$

VAZ088>098-262300-
SOUTHEAST VIRGINIA

CITY           SKY/WX    TMP DP  RH WIND       PRES   REMARKS
NORFOLK        SUNNY     57  38  48 NE10      29.69S
VIRGINIA BEACH MOSUNNY   59  41  51 N12       29.69R
NORFOLK NAVAL  MOSUNNY   59  37  44 N10       29.71S
WEST POINT*    MOSUNNY   62  29  28 CALM      29.70S
SALUDA*        FAIR      58  35  41 CALM      29.69S
NEWPORT NEWS   SUNNY     63  34  33 NE8       29.70R
LANGLEY AFB    SUNNY     58  37  44 VRB3      29.69S
FORT EUSTIS    MOSUNNY   61  37  40 N3        29.67S
WILLIAMSBURG*  MOSUNNY   61  48  63 CALM      29.70S
HR EXEC AP*    FAIR      59  37  44 N6        29.71S
FRANKLIN*      SUNNY     59  37  43 NE10      29.70S
WAKEFIELD      MOSUNNY   61  40  45 N6        29.70R
$$

VAZ020-022-025-037-045-262300-
WEST CENTRAL AND SOUTHWEST VIRGINIA

CITY           SKY/WX    TMP DP  RH WIND       PRES   REMARKS
STAUNTON*      SUNNY     59  32  36 N6        29.72R
WAYNESBORO*    FAIR      56  35  46 NE3       29.71R
HOT SPRINGS VA CLOUDY    43  43 100 W6        29.70R
LYNCHBURG      CLOUDY    53  41  63 VRB3      29.74S
DANVILLE       CLOUDY    54  43  66 NW6       29.74F
SOUTH BOSTON*  MOCLDY    56  42  59 NW8       29.73S
MARTINSVILLE   CLOUDY    52  45  75 NE3       29.76S
ROANOKE        PTSUNNY   53  44  71 NW7       29.76S
BLACKSBURG     CLOUDY    48  42  80 N5        29.77S
DUBLIN*        CLOUDY    49  46  92 NW6       29.76S
MARION*        CLOUDY    49  43  80 NW9       29.77R
HILLSVILLE*    CLOUDY    46  45  98 N5        29.73F FOG
RICHLANDS*     CLOUDY    43  24  46 N6        29.77S
WISE*          CLOUDY    50  37  62 N8        29.78R
ABINGDON*      PTSUNNY   55  44  67 NE6       29.75R
$$

MDZ021>025-VAZ099-100-262300-
SOUTHERN MARYLAND AND THE DELMARVA PENINSULA

CITY           SKY/WX    TMP DP  RH WIND       PRES   REMARKS
PATUXENT RIVER PTSUNNY   60  32  34 NE7       29.68S
BAY BRIDGE APT   N/A    N/A N/A N/A N5        29.68S
LEONARDTOWN    MOSUNNY   59  28  31 E7        29.70S
DOVER          MOSUNNY   55  38  53 SE12      29.65R
GEORGETOWN     MOSUNNY   57  35  43 E10       29.69R
EASTON         MOSUNNY   64  34  32 N12       29.71
CAMBRIDGE      SUNNY     63  30  29 NW9G17    29.67S
SALISBURY      CLOUDY    58  36  43 E10       29.67R
OCEAN CITY     SUNNY     51  43  74 E7        29.69S
WALLOPS ISLAND SUNNY     56  35  45 E7        29.69S
ACCOMACK*      CLOUDY    57 -31   2 NW5       29.69S
$$

NCZ012>017-030>032-262300-
NORTH CENTRAL AND EASTERN NORTH CAROLINA

CITY           SKY/WX    TMP DP  RH WIND       PRES   REMARKS
ROANOKE RAPIDS CLOUDY    54  43  66 N5        29.72R
RALEIGH        CLOUDY    54  46  74 NE8       29.73S
ELIZABETH CITY PTSUNNY   54  43  66 N9        29.70R
AHOSKIE*       MOSUNNY   54  46  73 N3        29.71R
EDENTON*       PTSUNNY   56  46  68 N7        29.70S
CURRITUCK*     SUNNY     57  30  35 N12       29.70R
KILL DEVIL HLS CLOUDY    53  36  53 N8        29.68R
MANTEO         CLOUDY    53  36  51 N15       29.69R
CAPE HATTERAS  CLOUDY    50  45  83 N9G21     29.66R
TARBORO*       CLOUDY    54  46  76 CALM      29.74R
GOLDSBORO      CLOUDY    54  48  81 N6        29.69R
WASHINGTON     CLOUDY    52  46  81 N7        29.71R
GREENVILLE     PTSUNNY   54  46  76 N6        29.75R
NEW BERN       CLOUDY    54  47  77 N12       29.71R
WILMINGTON     CLOUDY    58  50  75 N8        29.68R
$$

VAZ048-262300-
ELSEWHERE

CITY           SKY/WX    TMP DP  RH WIND       PRES   REMARKS
HARRISBURG PA  MOSUNNY   61  27  27 N13       29.68S
BALTIMORE      MOSUNNY   63  28  26 NW9       29.67S
ANNAPOLIS      MOSUNNY   58  39  49 SE7       29.68R
ANDREWS AFB    MOSUNNY   61  33  35 N8        29.67R
PHILADELPHIA   PTSUNNY   62  27  26 S3        29.67S
HENDERSON NC   PTSUNNY   53  42  65 N5        29.73S
GREENSBORO     PTSUNNY   54  45  71 NE9       29.72S
ROCKY MOUNT    CLOUDY    53  46  77 N12       29.73R
$$

VAZ100-262300-
MARINE

STATION/POSITION TIME  TEMP    WIND        PRES    WAVE   SWELL
                       AIR SEA DIR/SP/G            HT/PER HT/PER
                 (UTC) (F)     (DEG/KT/KT) (MB)    (FT/S) (FT/S)
BRANDYWINE LGT   2100   51 52  140/ 14/ 15 1005.3F
CAPE MAY NJ      2100   52 56  110/ 12/ 13 1004.9F
LEWES DE         2100   51 54  110/ 11/ 13 1005.1F
15NM E FENWICK I 2150   48 48              1005.0F   2/11
OCEAN-CITY-INLET 2100   51 50   60/  7/  9 1004.9F
WACHAPREAGUE VA  2100   57 56  360/  5/  8 1005.2R
THOMAS POINT MD  2200   59 54   80/  2/  2 1005.7S
GOOSES REEF MD   2200   58 56   50/  2/  2   N/A     1/ 2
COVE POINT MD    2100   56     330/  2/  3 1005.8F
SOLOMONS ISLAND  2100      57                N/A
BISHOPS HEAD MD  2100   58 59  290/ 12/ 15 1004.4F
PINEY POINT MD   2100          230/  4/  5   N/A
CAMBRIDGE MD     2100   60 58  330/ 10/ 13 1004.6F
LEWISETTA VA     2100   58 56              1005.0F
RAPPAHANNOCK LGT 2100          320/  8/  9 1005.9R
YORK RVR RNG VA  2100   57      10/  8/ 10 1005.0R
YORKTOWN VA      2100   58 59   60/ 11/ 13 1005.1S
JAMESTOWN VA     2200   60 63  350/  4/  8 1004.6R
DOMINION TERM VA 2100   58      30/  8/ 12 1005.5F
KIPTOPEKE VA     2100      62  330/ 12/ 14   N/A
CHES BAY BRIDGE  2100   54 57  340/  9/ 11 1005.1S
CAPE HENRY VA    2100   53     340/ 11/ 12 1004.2S
CHESAPEAKE LGHT  2100   51      20/  8/  8 1006.0R
WILLOUBY STN VA  2100   54      40/ 12/ 14 1006.1F
S CRANEY ISL VA  2100           30/ 11/ 13 1005.4F
CAPE HENRY BUOY  2128      51                N/A     3/ 6
1ST LANDING BUOY 2100                      1005.2R   2/ 4
OFFSHORE WE BUOY 2111      50                N/A     4/ 6   3/ 6
64NM E OF VA BCH 2150   54 57  360/ 17/ 19 1003.8R   5/ 6   2/ 8
DUCK PIER NC     2100   52 54   10/ 18/ 20 1003.8R
44056 DUCK FRF   2111      55                N/A     5/ 6
OREGON INLET NC  2100   52 55  350/ 13/ 21 1004.6R
HATTERAS NC      2100   53 63  350/ 21/ 25 1003.4R
DIAMOND SHLS NC  2150   55 77  360/ 21/ 25 1003.6R   8/10
CAPE LOOKOUT NC  2200   54     360/ 12/ 15 1004.6R
$$


USA.gov is the U.S. government's official web portal to all federal, state and local government web resources and services.